Tracking 28790 objects as of 19-Apr-2024
HD Live streaming from Space Station
objects crossing your sky now

MINXSS-2

Track MINXSS-2 now!
10-day predictions
MINXSS-2 is classified as:


NORAD ID: 43758
Int'l Code: 2018-099A
Perigee: 539.0 km
Apogee: 564.2 km
Inclination: 97.6 °
Period: 95.5 minutes
Semi major axis: 6922 km
RCS: Unknown
Launch date: December 3, 2018
Source: United States (US)
Launch site: AIR FORCE WESTERN TEST RANGE (AFWTR)

Uplink (MHz):
Downlink (MHz): 437.250
Beacon (MHz):
Mode: 9600bps GMSK
Call sign: MINXS2
Status: Inactive


Uplink (MHz):
Downlink (MHz): 437.425/2425.000
Beacon (MHz): 437.450
Mode: CW
Call sign:
Status: Inactive


Uplink (MHz):
Downlink (MHz): 437.425
Beacon (MHz):
Mode: 9600bps GMSK
Call sign:
Status: Inactive

Your satellite tracking list
Your tracking list is empty




NASA's NSSDC Master Catalog

Two Line Element Set (TLE):
1 43758U 18099A   24109.06092806  .00021429  00000-0  14158-2 0  9990
2 43758  97.5595 172.3953 0018213 161.0246 199.1665 15.07284282293723
Source of the keplerian elements: AMSAT